FW5734 Weather Reports


Display with metric or nautical units.
time (UTC)temp
F
wind
direction
speed
MPH
gust
MPH
rain 1hr
in
rain 24hr
in
rain mn
in
humidity
%
barometer
mb
20260506015320 68 338 3.0 4.0 0.00 0.00 0.00 70 1015.9
20260506014322 69 23 2.0 4.0 0.00 0.00 0.00 68 1015.9
20260506013320 69 45 1.0 2.0 0.00 0.00 0.00 70 1015.9
20260506012320 69 0 1.0 2.0 0.00 0.00 0.00 68 1015.7
20260506011340 69 68 3.0 4.0 0.00 0.00 0.00 69 1015.8
20260506010321 68 45 2.0 3.0 0.00 0.00 0.00 68 1015.6
20260506005320 69 68 1.0 2.0 0.00 0.00 0.00 68 1015.6
20260506004320 67 293 2.0 3.0 0.00 0.00 0.00 74 1015.7
20260506003320 67 338 1.0 2.0 0.00 0.00 0.00 72 1015.7
20260506002320 68 338 1.0 4.0 0.00 0.00 0.00 72 1015.6
20260506001320 67 0.0 2.0 0.00 0.00 0.00 74 1015.7
20260506000319 67 203 2.0 4.0 0.00 0.00 0.00 75 1015.6
20260505235320 68 180 5.0 7.0 0.00 0.00 0.00 75 1015.7
20260505234320 68 225 4.0 7.0 0.00 0.00 0.00 75 1015.8
20260505233320 67 270 3.0 4.0 0.00 0.00 0.00 71 1015.9
20260505232320 67 180 4.0 7.0 0.00 0.00 0.00 74 1016.0
20260505231319 68 135 4.0 7.0 0.00 0.00 0.00 77 1016.2
20260505230320 66 180 6.0 9.0 0.00 0.00 0.00 75 1016.2
20260505225341 68 203 6.0 8.0 0.00 0.00 0.00 74 1016.3
20260505224320 67 158 5.0 8.0 0.00 0.00 0.00 76 1016.3
20260505223319 67 180 3.0 6.0 0.00 0.00 0.00 73 1016.4
20260505222319 67 203 4.0 8.0 0.00 0.00 0.00 76 1016.6
20260505221339 66 158 3.0 7.0 0.00 0.00 0.00 74 1016.5
20260505220400 66 180 6.0 9.0 0.00 0.00 0.00 78 1016.6
20260505215339 65 180 4.0 7.0 0.00 0.00 0.00 76 1016.8
20260505214321 65 135 3.0 8.0 0.00 0.00 0.00 76 1016.8
20260505213319 65 203 6.0 9.0 0.00 0.00 0.00 74 1016.8
20260505212319 64 180 4.0 7.0 0.00 0.00 0.00 78 1016.8
20260505211319 64 158 5.0 11.0 0.00 0.00 0.00 75 1016.8
20260505210401 65 180 6.0 8.0 0.00 0.00 0.00 76 1016.9
20260505205319 65 158 5.0 7.0 0.00 0.00 0.00 77 1017.0
20260505204340 64 158 2.0 3.0 0.00 0.00 0.00 73 1017.2
20260505203340 64 68 2.0 5.0 0.00 0.00 0.00 77 1017.2
20260505202359 63 203 2.0 4.0 0.00 0.00 0.00 78 1017.2
20260505201319 63 158 3.0 4.0 0.00 0.00 0.00 77 1017.4
20260505200319 62 90 2.0 3.0 0.00 0.00 0.00 75 1017.4
20260505195319 62 90 3.0 4.0 0.00 0.00 0.00 75 1017.5
20260505194319 62 45 2.0 5.0 0.00 0.00 0.00 78 1017.5
20260505193320 61 158 1.0 2.0 0.00 0.00 0.00 77 1017.6
20260505192319 61 180 3.0 5.0 0.00 0.00 0.00 77 1017.6
20260505191319 61 113 2.0 3.0 0.00 0.00 0.00 79 1017.6
20260505190400 60 113 2.0 3.0 0.00 0.00 0.00 79 1017.6
20260505185319 59 248 1.0 2.0 0.00 0.00 0.00 78 1017.6
20260505184318 59 158 2.0 2.0 0.00 0.00 0.00 79 1017.7
20260505183320 59 135 1.0 3.0 0.00 0.00 0.00 81 1017.5
20260505182319 59 225 2.0 3.0 0.00 0.00 0.00 80 1017.5
20260505181319 59 248 1.0 2.0 0.00 0.00 0.00 83 1017.4
20260505180319 58 248 3.0 5.0 0.00 0.00 0.00 81 1017.3
20260505175319 58 203 3.0 5.0 0.00 0.00 0.00 82 1017.4
20260505174319 57 203 1.0 2.0 0.00 0.00 0.00 81 1017.5
20260505173400 57 203 2.0 3.0 0.00 0.00 0.00 82 1017.4
20260505172319 57 203 1.0 1.0 0.00 0.00 0.00 81 1017.4
20260505171319 57 203 1.0 3.0 0.00 0.00 0.00 83 1017.3
20260505170318 57 158 2.0 4.0 0.00 0.00 0.00 82 1017.5
20260505165319 56 180 2.0 4.0 0.00 0.00 0.00 82 1017.3
20260505164319 56 0 1.0 2.0 0.00 0.00 0.00 85 1017.4
20260505163319 56 180 4.0 6.0 0.00 0.00 0.00 85 1017.4
20260505162319 56 203 3.0 5.0 0.00 0.00 0.00 86 1017.3
20260505161318 56 180 3.0 4.0 0.00 0.00 0.00 86 1017.3
20260505160318 55 0 4.0 5.0 0.00 0.00 0.00 87 1017.3
20260505153318 55 203 3.0 4.0 0.00 0.00 0.00 87 1017.2
20260505152359 55 225 1.0 3.0 0.00 0.00 0.00 88 1017.2
20260505151319 55 203 2.0 3.0 0.00 0.00 0.00 88 1017.1
20260505150318 55 203 2.0 4.0 0.00 0.00 0.00 89 1017.1
20260505140318 53 180 1.0 2.0 0.00 0.00 0.00 90 1017.0
20260505124338 53 203 1.0 2.0 0.00 0.00 0.00 91 1016.6
20260505123320 53 203 1.0 2.0 0.00 0.00 0.00 91 1016.6
20260505122320 53 203 1.0 2.0 0.00 0.00 0.00 91 1016.5
20260505121320 53 203 1.0 1.0 0.00 0.00 0.00 91 1016.4
20260505120320 53 203 1.0 1.0 0.00 0.00 0.00 91 1016.3
20260505115320 53 203 1.0 1.0 0.00 0.00 0.00 91 1016.3
20260505114319 53 180 3.0 4.0 0.00 0.00 0.00 91 1016.4
20260505113320 53 180 2.0 3.0 0.00 0.00 0.00 91 1016.4
20260505112320 53 203 1.0 3.0 0.00 0.00 0.00 92 1016.4
20260505111320 53 203 1.0 2.0 0.00 0.00 0.00 91 1016.4
20260505110320 53 203 1.0 2.0 0.00 0.00 0.00 91 1016.3
20260505101320 53 225 2.0 3.0 0.00 0.00 0.00 91 1016.0
20260505100320 53 225 1.0 2.0 0.00 0.00 0.00 91 1016.0
20260505095320 53 225 2.0 3.0 0.00 0.00 0.00 91 1016.0
20260505094340 53 225 1.0 2.0 0.00 0.00 0.00 91 1015.8
20260505093319 53 203 3.0 4.0 0.00 0.00 0.00 91 1015.9
20260505092320 53 225 2.0 3.0 0.00 0.00 0.00 90 1015.8
20260505091340 53 225 2.0 3.0 0.00 0.00 0.00 90 1015.8
20260505090320 53 203 2.0 3.0 0.00 0.00 0.00 90 1015.8
20260505085319 54 180 4.0 5.0 0.00 0.00 0.00 90 1015.8
20260505084340 54 180 2.0 4.0 0.00 0.00 0.00 89 1015.8
20260505083320 54 180 3.0 4.0 0.00 0.00 0.00 89 1015.8
20260505082319 54 0 2.0 2.0 0.00 0.00 0.00 89 1015.8
20260505081319 54 180 2.0 4.0 0.00 0.00 0.00 89 1015.7
20260505080320 54 180 4.0 5.0 0.00 0.00 0.00 88 1015.7
20260505075319 54 158 5.0 7.0 0.00 0.00 0.00 88 1015.7
20260505074340 54 203 5.0 6.0 0.00 0.00 0.00 87 1015.7
20260505073319 55 180 3.0 5.0 0.00 0.00 0.00 87 1015.7
20260505072319 55 180 2.0 3.0 0.00 0.00 0.00 87 1015.8
20260505071320 55 180 4.0 6.0 0.00 0.00 0.00 87 1015.7
20260505070340 55 225 3.0 4.0 0.00 0.00 0.00 86 1015.6
20260505065318 55 180 2.0 3.0 0.00 0.00 0.00 86 1015.5
20260505064319 55 203 2.0 2.0 0.00 0.00 0.00 86 1015.5
20260505063318 55 0.0 1.0 0.00 0.00 0.00 86 1015.5
20260505062319 55 203 2.0 3.0 0.00 0.00 0.00 86 1015.4
20260505061400 55 203 2.0 3.0 0.00 0.00 0.00 86 1015.3
20260505060319 56 0.0 1.0 0.00 0.00 0.00 86 1015.3
20260505055319 56 180 2.0 4.0 0.00 0.00 0.00 86 1015.5
20260505054318 56 0.0 1.0 0.00 0.00 0.00 85 1015.4
20260505053319 56 203 1.0 2.0 0.00 0.00 0.00 87 1015.2
20260505052318 56 203 2.0 3.0 0.00 0.00 0.00 86 1015.2
20260505051318 56 180 1.0 2.0 0.00 0.00 0.00 85 1015.3
20260505050319 56 225 1.0 2.0 0.00 0.00 0.00 86 1015.2
20260505041319 55 203 2.0 4.0 0.00 0.00 0.00 86 1014.7
20260505040318 55 225 2.0 2.0 0.00 0.00 0.00 86 1014.4
20260505035319 56 180 2.0 3.0 0.00 0.00 0.00 85 1014.3
20260505034318 56 180 4.0 6.0 0.00 0.00 0.00 85 1014.2
20260505033318 57 203 2.0 3.0 0.00 0.00 0.00 84 1013.9
20260505032319 57 180 5.0 6.0 0.00 0.00 0.00 83 1013.7
20260505031318 57 225 5.0 6.0 0.00 0.00 0.00 83 1013.6
20260505030318 58 225 2.0 4.0 0.00 0.00 0.00 83 1013.3
20260505025320 59 225 1.0 2.0 0.00 0.00 0.00 81 1013.1
20260505024321 59 180 2.0 3.0 0.00 0.00 0.00 81 1012.9
20260505023320 60 180 3.0 4.0 0.00 0.00 0.00 80 1012.8
20260505022340 61 203 3.0 3.0 0.00 0.00 0.00 79 1012.7
20260505021341 62 180 5.0 7.0 0.00 0.00 0.00 78 1012.6
20260505020320 63 180 7.0 10.0 0.00 0.00 0.00 77 1012.6